Location: Haulchin
(50.3172°N, 3.4360°E)
Time: 06:48:15
(UTC+00:00)

Nadezhda 1 Rocket - Pass Details

Date: 23 May 2024
Orbit: 941 x 1004 km, 83.0° (Epoch: 19 June)

Event Time Altitude Azimuth Distance (km) Brightness Sun altitude
Rises 01:04:15 0° 350° (N) 3,744 8.1 -16.8°
Reaches altitude 10° 01:06:48 10° 351° (N) 2,791 7.3 -16.7°
Maximum altitude 01:13:15 85° 80° (E) 1,014 4.1 -16.3°
Enters shadow 01:18:19 17° 170° (S) 2,279 5.4 -16.0°
